2023/02/17 00:00:00,99.8,-5.6
2023/02/17 00:10:00,99.8,-5.5
2023/02/17 00:20:00,99.8,-5.4
2023/02/17 00:30:00,99.8,-5.5
2023/02/17 00:40:00,99.8,-5.5
2023/02/17 00:50:00,99.7,-5.5
2023/02/17 01:00:00,99.7,-5.5
2023/02/17 01:10:00,99.7,-5.6
2023/02/17 01:20:00,99.7,-5.5
2023/02/17 01:30:00,99.7,-5.6
2023/02/17 01:40:00,99.6,-5.5
2023/02/17 01:50:00,99.6,-5.6
2023/02/17 02:00:00,99.6,-5.5
2023/02/17 02:10:00,99.6,-5.6
2023/02/17 02:20:00,99.5,-5.5
2023/02/17 02:30:00,99.5,-5.6
2023/02/17 02:40:00,99.4,-5.4
2023/02/17 02:50:00,99.4,-5.5
2023/02/17 03:00:00,99.4,-5.7
2023/02/17 03:10:00,99.4,-5.6
2023/02/17 03:20:00,99.3,-5.3
2023/02/17 03:30:00,99.3,-5.4
2023/02/17 03:40:00,99.3,-5.6
2023/02/17 03:50:00,99.3,-5.9
2023/02/17 04:00:00,99.2,-5.5
2023/02/17 04:10:00,99.2,-5.5
2023/02/17 04:20:00,99.2,-5.3
2023/02/17 04:30:00,99.2,-5.3
2023/02/17 04:40:00,99.2,-5.0
2023/02/17 04:50:00,99.2,-5.1
2023/02/17 05:00:00,99.2,-4.7
2023/02/17 05:10:00,99.1,-4.8
2023/02/17 05:20:00,99.2,-4.7
2023/02/17 05:30:00,99.3,-4.6
2023/02/17 05:40:00,99.2,-4.4
2023/02/17 05:50:00,99.2,-4.3
2023/02/17 06:00:00,99.2,-4.1
2023/02/17 06:10:00,99.1,-3.8
2023/02/17 06:20:00,99.2,-3.5
2023/02/17 06:30:00,99.1,-3.5
2023/02/17 06:40:00,99.1,-3.4
2023/02/17 06:50:00,99.1,-3.2
2023/02/17 07:00:00,98.9,-2.8
2023/02/17 07:10:00,98.8,-2.5
2023/02/17 07:20:00,98.8,-2.1
2023/02/17 07:30:00,98.7,-1.9
2023/02/17 07:40:00,98.7,-1.7
2023/02/17 07:50:00,98.7,-1.2
2023/02/17 08:00:00,98.6,-0.9
2023/02/17 08:10:00,98.6,-0.8
2023/02/17 08:20:00,98.4,-0.8
2023/02/17 08:30:00,98.3,-0.6
2023/02/17 08:40:00,98.3,-0.7
2023/02/17 08:50:00,98.3,-0.2
2023/02/17 09:00:00,98.3, 0.7
2023/02/17 09:10:00,98.3, 0.7
2023/02/17 09:20:00,98.2, 0.8
2023/02/17 09:30:00,98.3, 2.0
2023/02/17 09:40:00,98.3, 2.2
2023/02/17 09:50:00,98.1, 2.3
2023/02/17 10:00:00,98.0, 2.4
2023/02/17 10:10:00,98.0, 2.6
2023/02/17 10:20:00,98.1, 3.8
2023/02/17 10:30:00,98.0, 4.4
2023/02/17 10:40:00,97.9, 4.8
2023/02/17 10:50:00,97.8, 5.0
2023/02/17 11:00:00,97.7, 5.3
2023/02/17 11:10:00,97.5, 5.4
2023/02/17 11:20:00,97.6, 7.5
2023/02/17 11:30:00,97.4, 6.5
2023/02/17 11:40:00,97.2, 6.7
2023/02/17 11:50:00,97.0, 8.1
2023/02/17 12:00:00,96.7, 8.9
2023/02/17 12:10:00,96.7,10.3
2023/02/17 12:20:00,96.6,10.7
2023/02/17 12:30:00,96.3,11.3
2023/02/17 12:40:00,96.3,11.4
2023/02/17 12:50:00,96.2,10.6
2023/02/17 13:00:00,95.9,11.0
2023/02/17 13:10:00,95.7,10.3
2023/02/17 13:20:00,95.8,13.8
2023/02/17 13:30:00,95.3,13.9
2023/02/17 13:40:00,94.8,14.2
2023/02/17 13:50:00,94.5,13.4
2023/02/17 14:00:00,94.0, 9.7
2023/02/17 14:10:00,93.7,10.2
2023/02/17 14:20:00,93.5, 8.6
2023/02/17 14:30:00,93.2, 7.8
2023/02/17 14:40:00,93.2,11.5
2023/02/17 14:50:00,92.9,10.5
2023/02/17 15:00:00,92.8,10.7
2023/02/17 15:10:00,92.4,11.4
2023/02/17 15:20:00,92.2, 8.9
2023/02/17 15:30:00,92.3,11.3
2023/02/17 15:40:00,92.1,13.1
2023/02/17 15:50:00,91.6,14.0
2023/02/17 16:00:00,91.6,14.9
2023/02/17 16:10:00,91.3,14.9
2023/02/17 16:20:00,91.1,13.7
2023/02/17 16:30:00,90.9,10.9
2023/02/17 16:40:00,90.9, 6.7
2023/02/17 16:50:00,90.8, 7.8
2023/02/17 17:00:00,90.6, 7.2
2023/02/17 17:10:00,90.7, 6.2
2023/02/17 17:20:00,90.6, 3.9
2023/02/17 17:30:00,90.4, 2.8
2023/02/17 17:40:00,90.3, 2.2
2023/02/17 17:50:00,90.1, 1.8
2023/02/17 18:00:00,90.1, 1.4
2023/02/17 18:10:00,90.1, 1.2
2023/02/17 18:20:00,90.0, 1.4
2023/02/17 18:30:00,89.9, 1.4
2023/02/17 18:40:00,89.9, 1.6
2023/02/17 18:50:00,89.9, 1.8
2023/02/17 19:00:00,89.9, 1.7
2023/02/17 19:10:00,89.8, 1.8
2023/02/17 19:20:00,89.9, 1.7
2023/02/17 19:30:00,90.2, 2.0
2023/02/17 19:40:00,90.4, 1.9
2023/02/17 19:50:00,90.3, 1.9
2023/02/17 20:00:00,90.6, 1.9
2023/02/17 20:10:00,90.8, 1.8
2023/02/17 20:20:00,90.5, 1.7
2023/02/17 20:30:00,90.1, 1.9
2023/02/17 20:40:00,89.8, 2.1
2023/02/17 20:50:00,89.7, 2.0
2023/02/17 21:00:00,89.5, 2.1
2023/02/17 21:10:00,89.2, 2.2
2023/02/17 21:20:00,89.2, 2.0
2023/02/17 21:30:00,89.1, 2.1
2023/02/17 21:40:00,89.0, 2.2
2023/02/17 21:50:00,89.0, 1.8
2023/02/17 22:00:00,89.0, 1.8
2023/02/17 22:10:00,89.0, 2.0
2023/02/17 22:20:00,88.9, 2.0
2023/02/17 22:30:00,88.8, 1.8
2023/02/17 22:40:00,88.9, 1.9
2023/02/17 22:50:00,88.9, 1.6
2023/02/17 23:00:00,88.8, 1.9
2023/02/17 23:10:00,88.8, 2.2
2023/02/17 23:20:00,88.8, 1.8
2023/02/17 23:30:00,88.8, 1.8
2023/02/17 23:40:00,88.8, 1.9
2023/02/17 23:50:00,88.7, 2.0
